Time,TemperatureF,DewpointF,PressureIn,WindDirection,WindDirectionDegrees,WindSpeedMPH,WindSpeedGustMPH,Humidity,HourlyPrecipIn,Conditions,Clouds,dailyrainin,SoftwareType,DateUTC
2013-05-14 00:03:00,56.1,36.0,29.48,SW,236,7.0,7.0,47,0.00,,,0.00,weatherlink.com 1.10,2013-05-14 05:03:00,
2013-05-14 00:18:00,56.3,36.0,29.47,SW,225,4.0,9.0,46,0.00,,,0.00,weatherlink.com 1.10,2013-05-14 05:18:00,
2013-05-14 00:48:00,55.6,37.0,29.46,WSW,257,6.0,9.0,50,0.00,,,0.00,weatherlink.com 1.10,2013-05-14 05:48:00,
2013-05-14 01:03:00,55.9,38.0,29.45,WSW,245,7.0,9.0,51,0.00,,,0.00,weatherlink.com 1.10,2013-05-14 06:03:00,
2013-05-14 01:18:00,55.7,38.0,29.44,South,181,8.0,13.0,52,0.00,,,0.00,weatherlink.com 1.10,2013-05-14 06:18:00,
2013-05-14 01:33:00,55.6,38.0,29.43,SW,233,10.0,11.0,52,0.00,,,0.00,weatherlink.com 1.10,2013-05-14 06:33:00,
2013-05-14 01:49:00,55.3,38.0,29.43,SSW,202,8.0,13.0,53,0.00,,,0.00,weatherlink.com 1.10,2013-05-14 06:49:00,
2013-05-14 02:05:00,55.4,38.0,29.42,SW,229,10.0,14.0,52,0.00,,,0.00,weatherlink.com 1.10,2013-05-14 07:05:00,
2013-05-14 02:19:00,55.3,38.0,29.41,SW,224,11.0,15.0,52,0.00,,,0.00,weatherlink.com 1.10,2013-05-14 07:19:00,
2013-05-14 02:34:00,55.2,38.0,29.40,SW,233,11.0,16.0,53,0.00,,,0.00,weatherlink.com 1.10,2013-05-14 07:34:00,
2013-05-14 02:49:00,54.9,38.0,29.40,SW,229,10.0,17.0,53,0.00,,,0.00,weatherlink.com 1.10,2013-05-14 07:49:00,
2013-05-14 03:04:00,54.7,38.0,29.40,West,271,7.0,16.0,53,0.00,,,0.00,weatherlink.com 1.10,2013-05-14 08:04:00,
2013-05-14 03:19:00,54.0,38.0,29.39,WSW,252,6.0,12.0,55,0.00,,,0.00,weatherlink.com 1.10,2013-05-14 08:19:00,
2013-05-14 03:34:00,53.2,38.0,29.39,SW,218,9.0,11.0,56,0.00,,,0.00,weatherlink.com 1.10,2013-05-14 08:34:00,
2013-05-14 03:49:00,52.9,38.0,29.38,SSW,198,5.0,11.0,57,0.00,,,0.00,weatherlink.com 1.10,2013-05-14 08:49:00,
2013-05-14 04:04:00,53.0,38.0,29.37,WSW,240,6.0,13.0,57,0.00,,,0.00,weatherlink.com 1.10,2013-05-14 09:04:00,
2013-05-14 04:20:00,53.4,37.0,29.37,WSW,250,10.0,15.0,55,0.00,,,0.00,weatherlink.com 1.10,2013-05-14 09:20:00,
2013-05-14 04:34:00,54.2,37.0,29.36,SW,224,14.0,18.0,53,0.00,,,0.00,weatherlink.com 1.10,2013-05-14 09:34:00,
2013-05-14 04:49:00,55.1,37.0,29.35,WSW,239,14.0,19.0,51,0.00,,,0.00,weatherlink.com 1.10,2013-05-14 09:49:00,
2013-05-14 05:04:00,55.3,37.0,29.35,WSW,243,22.0,22.0,51,0.00,,,0.00,weatherlink.com 1.10,2013-05-14 10:04:00,
2013-05-14 05:19:00,55.6,37.0,29.34,SSE,151,8.0,21.0,50,0.00,,,0.00,weatherlink.com 1.10,2013-05-14 10:19:00,
2013-05-14 05:34:00,55.5,37.0,29.34,SSE,160,16.0,21.0,51,0.00,,,0.00,weatherlink.com 1.10,2013-05-14 10:34:00,
2013-05-14 05:49:00,55.3,38.0,29.33,WSW,246,13.0,22.0,52,0.00,,,0.00,weatherlink.com 1.10,2013-05-14 10:49:00,
2013-05-14 06:04:00,55.6,38.0,29.33,West,269,10.0,19.0,53,0.00,,,0.00,weatherlink.com 1.10,2013-05-14 11:04:00,
2013-05-14 06:19:00,56.1,39.0,29.33,SW,217,13.0,18.0,53,0.00,,,0.00,weatherlink.com 1.10,2013-05-14 11:19:00,
2013-05-14 06:34:00,56.6,39.0,29.32,SW,230,10.0,19.0,53,0.00,,,0.00,weatherlink.com 1.10,2013-05-14 11:34:00,
2013-05-14 06:49:00,57.2,40.0,29.32,West,280,12.0,19.0,53,0.00,,,0.00,weatherlink.com 1.10,2013-05-14 11:49:00,
2013-05-14 07:04:00,57.6,41.0,29.31,SW,215,14.0,24.0,54,0.00,,,0.00,weatherlink.com 1.10,2013-05-14 12:04:00,
2013-05-14 07:19:00,58.4,42.0,29.30,SW,221,11.0,24.0,54,0.00,,,0.00,weatherlink.com 1.10,2013-05-14 12:19:00,
2013-05-14 07:35:00,59.3,42.0,29.30,WSW,242,16.0,20.0,54,0.00,,,0.00,weatherlink.com 1.10,2013-05-14 12:35:00,
2013-05-14 07:50:00,60.6,44.0,29.30,South,170,11.0,19.0,54,0.00,,,0.00,weatherlink.com 1.10,2013-05-14 12:50:00,
2013-05-14 08:05:00,61.9,45.0,29.29,SW,215,14.0,20.0,54,0.00,,,0.00,weatherlink.com 1.10,2013-05-14 13:05:00,
2013-05-14 08:20:00,63.2,46.0,29.29,NW,307,6.0,18.0,53,0.00,,,0.00,weatherlink.com 1.10,2013-05-14 13:20:00,
2013-05-14 08:35:00,65.0,47.0,29.28,SSE,151,6.0,23.0,52,0.00,,,0.00,weatherlink.com 1.10,2013-05-14 13:35:00,
2013-05-14 08:50:00,66.0,47.0,29.27,SW,224,22.0,23.0,51,0.00,,,0.00,weatherlink.com 1.10,2013-05-14 13:50:00,
2013-05-14 09:06:00,66.8,47.0,29.27,WSW,252,18.0,25.0,50,0.00,,,0.00,weatherlink.com 1.10,2013-05-14 14:06:00,
2013-05-14 09:20:00,67.6,49.0,29.27,SSW,196,16.0,28.0,51,0.00,,,0.00,weatherlink.com 1.10,2013-05-14 14:20:00,
2013-05-14 09:35:00,69.5,49.0,29.26,WSW,238,19.0,23.0,49,0.00,,,0.00,weatherlink.com 1.10,2013-05-14 14:35:00,
2013-05-14 09:50:00,71.3,52.0,29.26,SW,219,21.0,23.0,50,0.00,,,0.00,weatherlink.com 1.10,2013-05-14 14:50:00,
2013-05-14 10:05:00,71.3,51.0,29.26,SW,219,19.0,24.0,49,0.00,,,0.00,weatherlink.com 1.10,2013-05-14 15:05:00,
2013-05-14 10:20:00,72.8,52.0,29.25,WSW,237,23.0,25.0,49,0.00,,,0.00,weatherlink.com 1.10,2013-05-14 15:20:00,
2013-05-14 10:35:00,73.6,53.0,29.24,SW,235,18.0,26.0,48,0.00,,,0.00,weatherlink.com 1.10,2013-05-14 15:35:00,
2013-05-14 10:50:00,74.9,53.0,29.24,WSW,242,20.0,24.0,47,0.00,,,0.00,weatherlink.com 1.10,2013-05-14 15:50:00,
2013-05-14 11:05:00,76.1,54.0,29.24,SW,221,15.0,24.0,46,0.00,,,0.00,weatherlink.com 1.10,2013-05-14 16:05:00,
2013-05-14 11:20:00,77.3,55.0,29.23,WSW,245,20.0,26.0,46,0.00,,,0.00,weatherlink.com 1.10,2013-05-14 16:20:00,
2013-05-14 11:35:00,77.5,54.0,29.23,WSW,249,16.0,24.0,44,0.00,,,0.00,weatherlink.com 1.10,2013-05-14 16:35:00,
2013-05-14 11:50:00,78.2,54.0,29.23,WSW,253,14.0,26.0,44,0.00,,,0.00,weatherlink.com 1.10,2013-05-14 16:50:00,
2013-05-14 12:05:00,78.9,56.0,29.23,WSW,245,11.0,22.0,45,0.00,,,0.00,weatherlink.com 1.10,2013-05-14 17:05:00,
2013-05-14 12:21:00,79.8,57.0,29.23,SW,216,11.0,21.0,45,0.00,,,0.00,weatherlink.com 1.10,2013-05-14 17:21:00,
2013-05-14 12:36:00,80.8,56.0,29.22,WSW,252,16.0,22.0,42,0.00,,,0.00,weatherlink.com 1.10,2013-05-14 17:36:00,
2013-05-14 12:51:00,81.5,56.0,29.22,WSW,250,16.0,22.0,42,0.00,,,0.00,weatherlink.com 1.10,2013-05-14 17:51:00,
2013-05-14 13:06:00,82.5,56.0,29.22,SW,230,10.0,22.0,40,0.00,,,0.00,weatherlink.com 1.10,2013-05-14 18:06:00,
2013-05-14 13:21:00,83.4,56.0,29.21,WSW,241,10.0,22.0,39,0.00,,,0.00,weatherlink.com 1.10,2013-05-14 18:21:00,
2013-05-14 13:36:00,84.1,57.0,29.21,WSW,250,17.0,22.0,40,0.00,,,0.00,weatherlink.com 1.10,2013-05-14 18:36:00,
2013-05-14 13:51:00,84.7,56.0,29.21,WSW,257,9.0,22.0,38,0.00,,,0.00,weatherlink.com 1.10,2013-05-14 18:51:00,
2013-05-14 14:06:00,85.6,56.0,29.21,WSW,250,15.0,20.0,37,0.00,,,0.00,weatherlink.com 1.10,2013-05-14 19:06:00,
2013-05-14 14:21:00,86.3,56.0,29.21,West,269,16.0,21.0,35,0.00,,,0.00,weatherlink.com 1.10,2013-05-14 19:21:00,
2013-05-14 14:36:00,86.9,55.0,29.20,West,280,8.0,20.0,34,0.00,,,0.00,weatherlink.com 1.10,2013-05-14 19:36:00,
2013-05-14 14:51:00,87.2,54.0,29.20,West,276,6.0,22.0,32,0.00,,,0.00,weatherlink.com 1.10,2013-05-14 19:51:00,
2013-05-14 15:06:00,88.0,55.0,29.19,West,269,20.0,23.0,32,0.00,,,0.00,weatherlink.com 1.10,2013-05-14 20:06:00,
2013-05-14 15:21:00,88.2,50.0,29.19,WNW,285,15.0,19.0,27,0.00,,,0.00,weatherlink.com 1.10,2013-05-14 20:21:00,
2013-05-14 15:36:00,88.8,52.0,29.19,WNW,282,9.0,16.0,28,0.00,,,0.00,weatherlink.com 1.10,2013-05-14 20:36:00,
2013-05-14 15:51:00,88.9,52.0,29.19,WSW,257,6.0,15.0,28,0.00,,,0.00,weatherlink.com 1.10,2013-05-14 20:51:00,
2013-05-14 16:06:00,89.3,53.0,29.19,West,259,8.0,14.0,29,0.00,,,0.00,weatherlink.com 1.10,2013-05-14 21:06:00,
2013-05-14 16:21:00,90.0,54.0,29.19,West,281,10.0,14.0,29,0.00,,,0.00,weatherlink.com 1.10,2013-05-14 21:21:00,
2013-05-14 16:36:00,90.6,52.0,29.19,SW,233,10.0,13.0,27,0.00,,,0.00,weatherlink.com 1.10,2013-05-14 21:36:00,
2013-05-14 17:06:00,90.1,50.0,29.19,West,266,8.0,13.0,25,0.00,,,0.00,weatherlink.com 1.10,2013-05-14 22:06:00,
2013-05-14 17:21:00,90.6,48.0,29.19,WSW,257,5.0,8.0,23,0.00,,,0.00,weatherlink.com 1.10,2013-05-14 22:21:00,
2013-05-14 17:36:00,91.8,49.0,29.18,NNW,340,0.0,5.0,23,0.00,,,0.00,weatherlink.com 1.10,2013-05-14 22:36:00,
2013-05-14 17:51:00,91.2,51.0,29.17,West,267,3.0,9.0,25,0.00,,,0.00,weatherlink.com 1.10,2013-05-14 22:51:00,
2013-05-14 18:06:00,92.2,48.0,29.17,WSW,254,1.0,5.0,22,0.00,,,0.00,weatherlink.com 1.10,2013-05-14 23:06:00,
2013-05-14 18:21:00,92.4,47.0,29.16,WNW,290,2.0,5.0,21,0.00,,,0.00,weatherlink.com 1.10,2013-05-14 23:21:00,
2013-05-14 18:37:00,92.3,49.0,29.15,SW,227,1.0,6.0,23,0.00,,,0.00,weatherlink.com 1.10,2013-05-14 23:37:00,
2013-05-14 18:52:00,93.6,51.0,29.15,SSE,155,1.0,4.0,23,0.00,,,0.00,weatherlink.com 1.10,2013-05-14 23:52:00,
2013-05-14 19:07:00,92.8,50.0,29.14,SSE,159,3.0,5.0,23,0.00,,,0.00,weatherlink.com 1.10,2013-05-15 00:07:00,
2013-05-14 19:22:00,89.9,52.0,29.14,SW,226,6.0,11.0,27,0.00,,,0.00,weatherlink.com 1.10,2013-05-15 00:22:00,
2013-05-14 19:37:00,87.4,52.0,29.14,West,264,4.0,8.0,30,0.00,,,0.00,weatherlink.com 1.10,2013-05-15 00:37:00,
2013-05-14 19:52:00,85.8,55.0,29.14,SSW,198,5.0,13.0,35,0.00,,,0.00,weatherlink.com 1.10,2013-05-15 00:52:00,
2013-05-14 20:07:00,84.1,56.0,29.14,WSW,240,9.0,13.0,38,0.00,,,0.00,weatherlink.com 1.10,2013-05-15 01:07:00,
2013-05-14 20:22:00,83.0,58.0,29.14,SW,233,9.0,16.0,43,0.00,,,0.00,weatherlink.com 1.10,2013-05-15 01:22:00,
2013-05-14 20:37:00,82.2,59.0,29.14,ENE,57,7.0,19.0,46,0.00,,,0.00,weatherlink.com 1.10,2013-05-15 01:37:00,
2013-05-14 20:52:00,81.1,59.0,29.15,West,280,5.0,13.0,47,0.00,,,0.00,weatherlink.com 1.10,2013-05-15 01:52:00,
2013-05-14 21:07:00,80.1,59.0,29.16,SW,217,6.0,14.0,49,0.00,,,0.00,weatherlink.com 1.10,2013-05-15 02:07:00,
2013-05-14 21:22:00,79.3,60.0,29.16,SW,227,7.0,14.0,51,0.00,,,0.00,weatherlink.com 1.10,2013-05-15 02:22:00,
2013-05-14 21:37:00,79.1,59.0,29.16,SW,230,11.0,16.0,51,0.00,,,0.00,weatherlink.com 1.10,2013-05-15 02:37:00,
2013-05-14 21:52:00,78.8,60.0,29.17,WSW,253,9.0,19.0,52,0.00,,,0.00,weatherlink.com 1.10,2013-05-15 02:52:00,
2013-05-14 22:07:00,78.0,59.0,29.16,WSW,252,10.0,14.0,52,0.00,,,0.00,weatherlink.com 1.10,2013-05-15 03:07:00,
2013-05-14 22:22:00,77.2,59.0,29.17,SSW,211,9.0,13.0,53,0.00,,,0.00,weatherlink.com 1.10,2013-05-15 03:22:00,
2013-05-14 22:37:00,76.6,59.0,29.16,SSW,205,7.0,18.0,55,0.00,,,0.00,weatherlink.com 1.10,2013-05-15 03:37:00,
2013-05-14 22:52:00,76.1,59.0,29.16,South,184,6.0,14.0,56,0.00,,,0.00,weatherlink.com 1.10,2013-05-15 03:52:00,
2013-05-14 23:07:00,75.5,59.0,29.17,SSW,200,6.0,15.0,57,0.00,,,0.00,weatherlink.com 1.10,2013-05-15 04:07:00,
2013-05-14 23:22:00,75.3,59.0,29.18,WSW,244,7.0,11.0,58,0.00,,,0.00,weatherlink.com 1.10,2013-05-15 04:22:00,
2013-05-14 23:37:00,74.4,59.0,29.18,SW,227,7.0,11.0,59,0.00,,,0.00,weatherlink.com 1.10,2013-05-15 04:37:00,
2013-05-14 23:52:00,73.6,59.0,29.17,SW,231,7.0,11.0,60,0.00,,,0.00,weatherlink.com 1.10,2013-05-15 04:52:00,